Weather History for Siren, WI

Change the Weather History Date:

Thursday, February 21, 2013

  Actual Average Record
Temperature  
Mean Temperature 8 °F -  
Max Temperature 28 °F - - ()
Min Temperature -13 °F - - ()
Degree Days  
Heating Degree Days 58    
Moisture  
Dew Point 4 °F    
Average Humidity 73    
Maximum Humidity 92    
Minimum Humidity 50    
Precipitation  
Precipitation 0.00 in - - ()
Sea Level Pressure  
Sea Level Pressure 30.33 in    
Wind  
Wind Speed 4 mph (East)    
Max Wind Speed 14 mph    
Max Gust Speed 20 mph    
Visibility 10 miles    
Events      
T = Trace of Precipitation, MM = Missing Value Source: NWS Daily Summary

Daily Weather History Graph

Daily Weather History Graph

Search for Another Location

Airport:

Trip Planner

Search our weather history database for the weather conditions in past years. The results will help you decide how hot, cold, wet, or windy it might be!

Date:

Astronomy

Feb. 21, 2013 Rise Set
Actual Time 7:01 AM CST 5:45 PM CST
Civil Twilight 6:31 AM CST 6:15 PM CST
Nautical Twilight 5:56 AM CST 6:50 PM CST
Astronomical Twilight 5:22 AM CST 7:24 PM CST
Moon 1:52 PM CST (2/21) 4:15 AM CST (2/21)
Length of Visible Light 11h 44m
Length of Day
10h 43m
Waxing Gibbous, 84% of the Moon is Illuminated
Feb 21
Waxing Gibbous
Feb 25
Full
Mar 4
Last Quarter
Mar 11
New
Mar 19
First Quarter

Hourly Weather History & Observations

Time (CST) Temp. Windchill Dew Point Humidity Pressure Visibility Wind Dir Wind Speed Gust Speed Precip Events Conditions
12:15 AM -2.2 °F - -7.6 °F 78% 30.43 in 10.0 mi Calm Calm - N/A   Clear
12:35 AM -2.2 °F - -5.8 °F 85% 30.43 in 10.0 mi Calm Calm - N/A   Clear
12:55 AM -4.0 °F - -7.6 °F 85% 30.44 in 10.0 mi Calm Calm - N/A   Clear
1:15 AM -4.0 °F - -9.4 °F 78% 30.44 in 10.0 mi Calm Calm - N/A   Clear
1:35 AM -0.4 °F -13.4 °F -2.2 °F 92% 30.42 in 10.0 mi East 6.9 mph - N/A   Clear
1:55 AM -4.0 °F - -7.6 °F 85% 30.42 in 10.0 mi Calm Calm - N/A   Clear
2:15 AM -5.8 °F - -9.4 °F 84% 30.42 in 10.0 mi Calm Calm - N/A   Clear
2:35 AM -7.6 °F - -13.0 °F 77% 30.42 in 10.0 mi Calm Calm - N/A   Clear
2:55 AM -5.8 °F -14.5 °F -9.4 °F 84% 30.42 in 10.0 mi East 3.5 mph - N/A   Clear
3:15 AM -7.6 °F - -13.0 °F 77% 30.43 in 10.0 mi Calm Calm - N/A   Clear
3:35 AM -7.6 °F - -13.0 °F 77% 30.44 in 10.0 mi Calm Calm - N/A   Clear
3:55 AM -7.6 °F - -11.2 °F 84% 30.45 in 10.0 mi Calm Calm - N/A   Clear
4:15 AM -9.4 °F - -14.8 °F 77% 30.45 in 10.0 mi Calm Calm - N/A   Clear
4:35 AM -7.6 °F - -14.8 °F 71% 30.45 in 10.0 mi Calm Calm - N/A   Clear
4:55 AM -11.2 °F - -16.6 °F 77% 30.45 in 10.0 mi Calm Calm - N/A   Clear
5:15 AM -13.0 °F - -16.6 °F 84% 30.44 in 10.0 mi Calm Calm - N/A   Clear
6:15 AM -13.0 °F -25.1 °F -18.4 °F 77% 30.41 in 10.0 mi ENE 4.6 mph - N/A   Clear
6:35 AM -13.0 °F -27.0 °F -18.4 °F 77% 30.38 in 10.0 mi East 5.8 mph - N/A   Clear
6:55 AM -0.4 °F -8.3 °F -4.0 °F 85% 30.36 in 10.0 mi East 3.5 mph - N/A   Clear
7:15 AM -0.4 °F -10.4 °F -5.8 °F 78% 30.34 in 10.0 mi East 4.6 mph - N/A   Clear
7:35 AM -4.0 °F -16.3 °F -7.6 °F 85% 30.40 in 10.0 mi WSW 5.8 mph - N/A   Clear
7:55 AM -2.2 °F -12.5 °F -5.8 °F 85% 30.47 in 10.0 mi SW 4.6 mph - N/A   Clear
8:15 AM -0.4 °F - -5.8 °F 78% 30.47 in 10.0 mi Calm Calm - N/A   Clear
8:35 AM -0.4 °F -8.3 °F -4.0 °F 85% 30.46 in 10.0 mi ENE 3.5 mph - N/A   Scattered Clouds
8:55 AM 5.0 °F -5.6 °F 1.4 °F 85% 30.45 in 10.0 mi East 5.8 mph - N/A   Mostly Cloudy
9:15 AM 6.8 °F -3.5 °F 3.2 °F 85% 30.44 in 10.0 mi East 5.8 mph - N/A   Scattered Clouds
9:35 AM 8.6 °F 2.0 °F 3.2 °F 79% 30.44 in 10.0 mi ENE 3.5 mph - N/A   Clear
9:55 AM 10.4 °F 2.2 °F 3.2 °F 73% 30.42 in 10.0 mi ESE 4.6 mph - N/A   Clear
10:15 AM 12.2 °F 4.3 °F 3.2 °F 67% 30.42 in 10.0 mi ESE 4.6 mph - N/A   Clear
10:35 AM 12.2 °F 4.3 °F 3.2 °F 67% 30.42 in 10.0 mi SE 4.6 mph - N/A   Clear
10:55 AM 14.0 °F 5.1 °F 3.2 °F 62% 30.41 in 10.0 mi ESE 5.8 mph - N/A   Clear
11:15 AM 15.8 °F 6.1 °F 3.2 °F 58% 30.42 in 10.0 mi East 6.9 mph - N/A   Clear
11:35 AM 17.6 °F 9.3 °F 5.0 °F 58% 30.42 in 10.0 mi East 5.8 mph - N/A   Clear
12:15 PM 19.4 °F 11.5 °F 5.0 °F 54% 30.39 in 10.0 mi East 5.8 mph - N/A   Clear
12:35 PM 21.2 °F 14.9 °F 5.0 °F 50% 30.37 in 10.0 mi ESE 4.6 mph - N/A   Clear
12:55 PM 21.2 °F 12.6 °F 6.8 °F 54% 30.36 in 10.0 mi ESE 6.9 mph - N/A   Clear
1:15 PM 23.0 °F 14.7 °F 6.8 °F 50% 30.35 in 10.0 mi East 6.9 mph - N/A   Clear
1:35 PM 23.0 °F 13.9 °F 8.6 °F 54% 30.33 in 10.0 mi East 8.1 mph - N/A   Clear
1:55 PM 23.0 °F 12.4 °F 8.6 °F 54% 30.32 in 10.0 mi ENE 10.4 mph - N/A   Clear
2:15 PM 23.0 °F 13.1 °F 8.6 °F 54% 30.31 in 10.0 mi ENE 9.2 mph - N/A   Clear
2:35 PM 24.8 °F 16.1 °F 10.4 °F 54% 30.29 in 10.0 mi ENE 8.1 mph - N/A   Clear
2:55 PM 24.8 °F 16.9 °F 10.4 °F 54% 30.29 in 10.0 mi East 6.9 mph - N/A   Clear
3:15 PM 26.6 °F 18.2 °F 10.4 °F 51% 30.29 in 10.0 mi East 8.1 mph - N/A   Clear
3:35 PM 26.6 °F 17.5 °F 10.4 °F 51% 30.28 in 10.0 mi ESE 9.2 mph - N/A   Clear
3:55 PM 28.4 °F - 12.2 °F 51% 30.28 in 10.0 mi Calm Calm - N/A   Clear
4:15 PM 28.4 °F 22.2 °F 12.2 °F 51% 30.27 in 10.0 mi East 5.8 mph - N/A   Clear
4:35 PM 28.4 °F 24.6 °F 12.2 °F 51% 30.27 in 10.0 mi East 3.5 mph - N/A   Clear
4:55 PM 28.4 °F 22.2 °F 12.2 °F 51% 30.26 in 10.0 mi East 5.8 mph - N/A   Clear
5:15 PM 26.6 °F 19.1 °F 12.2 °F 55% 30.26 in 10.0 mi East 6.9 mph - N/A   Clear
5:35 PM 26.6 °F 18.2 °F 12.2 °F 55% 30.25 in 10.0 mi ENE 8.1 mph - N/A   Clear
5:55 PM 26.6 °F 18.2 °F 14.0 °F 59% 30.24 in 10.0 mi East 8.1 mph - N/A   Clear
6:15 PM 24.8 °F 15.3 °F 14.0 °F 64% 30.24 in 10.0 mi ENE 9.2 mph 17.3 mph N/A   Clear
6:35 PM 23.0 °F 12.4 °F 14.0 °F 68% 30.23 in 10.0 mi ENE 10.4 mph 19.6 mph N/A   Clear
6:55 PM 23.0 °F 10.6 °F 14.0 °F 68% 30.22 in 10.0 mi ENE 13.8 mph 19.6 mph N/A   Clear
7:15 PM 21.2 °F 10.1 °F 15.8 °F 80% 30.22 in 10.0 mi ENE 10.4 mph - N/A   Clear
7:35 PM 21.2 °F 10.1 °F 15.8 °F 80% 30.21 in 10.0 mi ENE 10.4 mph 17.3 mph N/A   Clear
7:55 PM 21.2 °F 10.9 °F 17.6 °F 86% 30.21 in 10.0 mi East 9.2 mph - N/A   Clear
8:15 PM 21.2 °F 11.7 °F 17.6 °F 86% 30.20 in 10.0 mi East 8.1 mph 16.1 mph N/A   Clear
8:35 PM 21.2 °F 13.6 °F 17.6 °F 86% 30.20 in 10.0 mi East 5.8 mph - N/A   Scattered Clouds
8:55 PM 21.2 °F 12.6 °F 17.6 °F 86% 30.19 in 10.0 mi East 6.9 mph - N/A   Scattered Clouds
9:15 PM 21.2 °F 12.6 °F 17.6 °F 86% 30.18 in 10.0 mi East 6.9 mph - N/A   Scattered Clouds
9:35 PM 21.2 °F 10.9 °F 17.6 °F 86% 30.18 in 10.0 mi East 9.2 mph - N/A   Clear
9:55 PM 21.2 °F 11.7 °F 17.6 °F 86% 30.16 in 10.0 mi East 8.1 mph - N/A   Clear
10:15 PM 21.2 °F 13.6 °F 17.6 °F 86% 30.16 in 10.0 mi East 5.8 mph - N/A   Clear
10:35 PM 21.2 °F 13.6 °F 17.6 °F 86% 30.15 in 10.0 mi ENE 5.8 mph - N/A   Clear
10:55 PM 21.2 °F 12.6 °F 17.6 °F 86% 30.15 in 10.0 mi ENE 6.9 mph - N/A   Clear
11:15 PM 21.2 °F 11.7 °F 17.6 °F 86% 30.13 in 10.0 mi ENE 8.1 mph - N/A   Mostly Cloudy
11:35 PM 21.2 °F 12.6 °F 17.6 °F 86% 30.12 in 10.0 mi ENE 6.9 mph - N/A   Overcast
11:55 PM 21.2 °F 13.6 °F 17.6 °F 86% 30.13 in 10.0 mi East 5.8 mph - N/A   Overcast